Погода в Краснозатонском

Россия / Республика Коми     61°40′41″N   50°59′17″E
темп.,
°C
ветер,
м/с
пор.,
м/с
влажн.,
%
обл.,
%
осадки,
мм/ч
давл.,
гПа
погр.,
м
18 мая, вт
вт1800:00+11с269473 0.0 1019185
03:00+10св248814 0.0 1021160
06:00+13св24710 0.0 1022505
09:00+17св224816 0.0 10221082
12:00+21в223556 0.0 10221387
15:00+22вюв223175 0.0 10211593
18:00+21юв243752 0.0 1021521
21:00+15юв245766 0.0 102185
19 мая, ср
ср1900:00+13ююв276589 0.0 1021129
03:00+12ююв2778100 0.0 1022162
06:00+16ю376126 0.0 1022291
09:00+22ююз454657 0.0 10211048
12:00+25ююз45334 0.0 10201625
15:00+26ююз45282 0.0 10191865
18:00+24ююз36353 0.0 1018684
21:00+18ююз365848 0.0 1019122
20 мая, чт
чт2000:00+16ююз286640 0.0 1019158
03:00+14ююз2771100 0.0 1019136
06:00+18ююз3659100 0.0 1019233
09:00+23ю354175 0.0 1018817
12:00+26ююз452720 0.0 10171847
15:00+27ююз35240 0.0 10161997
18:00+26ю35310 0.0 1015545
21:00+19ююв38515 0.0 1015153
21 мая, пт
пт2100:00+16ю28580 0.0 1015158
03:00+15ююв23660 0.0 101559
06:00+19ю48540 0.0 1014381
09:00+24ю58341 0.0 10131869
12:00+26ю582698 0.0 10112465
15:00+27ю61026100 0.0 10093163
18:00+21ююв5114368 0.0 10081199
21:00+17ююз4107041 0.2 10091038
22 мая, сб
сб2200:00+15ююз3108369 0.0 1008711
03:00+14ююз388995 0.2 1009676
06:00+15юз498556 0.2 1010695
09:00+17з584898 0.8 10121337
12:00+20з583298 0.0 10132196
15:00+21зюз6929100 0.0 10132787
18:00+19юз593674 0.0 10132130
21:00+15юз4104769 0.0 1015478